Time,TemperatureF,DewpointF,PressureIn,WindDirection,WindDirectionDegrees,WindSpeedMPH,WindSpeedGustMPH,Humidity,HourlyPrecipIn,Conditions,Clouds,dailyrainin,SolarRadiationWatts/m^2,SoftwareType,DateUTC
2013-01-24 00:00:00,9.9,6.6,30.11,South,185,0.0,6.0,86,0.00,,,0.00,0,WxPro DR1,2013-01-24 05:00:00,
2013-01-24 00:01:00,10.0,6.7,30.11,South,185,0.0,6.0,86,0.00,,,0.00,0,WxPro DR1,2013-01-24 05:01:00,
2013-01-24 00:03:00,10.1,6.7,30.11,South,179,2.0,6.0,86,0.00,,,0.00,0,WxPro DR1,2013-01-24 05:03:00,
2013-01-24 00:08:00,10.3,6.8,30.11,South,173,0.0,6.0,85,0.00,,,0.00,0,WxPro DR1,2013-01-24 05:08:00,
2013-01-24 00:13:00,10.6,7.0,30.11,South,172,0.0,2.0,85,0.00,,,0.00,0,WxPro DR1,2013-01-24 05:13:00,
2013-01-24 00:18:00,10.7,7.1,30.11,South,174,0.0,2.0,85,0.00,,,0.00,0,WxPro DR1,2013-01-24 05:18:00,
2013-01-24 00:23:00,10.8,7.2,30.11,SSE,167,0.0,3.0,85,0.00,,,0.00,0,WxPro DR1,2013-01-24 05:23:00,
2013-01-24 00:28:00,10.9,7.3,30.11,SSE,168,1.0,3.0,85,0.00,,,0.00,0,WxPro DR1,2013-01-24 05:28:00,
2013-01-24 00:33:00,10.9,7.3,30.11,SSE,168,1.0,2.0,85,0.00,,,0.00,0,WxPro DR1,2013-01-24 05:33:00,
2013-01-24 00:38:00,10.8,7.2,30.11,South,169,0.0,2.0,85,0.00,,,0.00,0,WxPro DR1,2013-01-24 05:38:00,
2013-01-24 00:43:00,10.8,7.2,30.11,South,169,1.0,4.0,85,0.00,,,0.00,0,WxPro DR1,2013-01-24 05:43:00,
2013-01-24 00:48:00,10.9,7.3,30.11,SSE,168,0.0,4.0,85,0.00,,,0.00,0,WxPro DR1,2013-01-24 05:48:00,
2013-01-24 00:53:00,10.9,7.3,30.11,SSE,168,0.0,3.0,85,0.00,,,0.00,0,WxPro DR1,2013-01-24 05:53:00,
2013-01-24 00:58:00,11.0,7.4,30.11,South,169,0.0,3.0,85,0.00,,,0.00,0,WxPro DR1,2013-01-24 05:58:00,
2013-01-24 01:03:00,11.1,7.5,30.11,South,169,0.0,2.0,85,0.00,,,0.00,0,WxPro DR1,2013-01-24 06:03:00,
2013-01-24 01:08:00,11.3,7.7,30.11,South,169,0.0,1.0,85,0.00,,,0.00,0,WxPro DR1,2013-01-24 06:08:00,
2013-01-24 01:13:00,11.4,7.8,30.11,SSE,168,1.0,1.0,85,0.00,,,0.00,0,WxPro DR1,2013-01-24 06:13:00,
2013-01-24 01:18:00,11.6,7.9,30.11,South,169,0.0,2.0,85,0.00,,,0.00,0,WxPro DR1,2013-01-24 06:18:00,
2013-01-24 01:23:00,11.6,8.0,30.11,SW,229,0.0,4.0,85,0.00,,,0.00,0,WxPro DR1,2013-01-24 06:23:00,
2013-01-24 01:28:00,11.8,8.1,30.11,SSW,213,0.0,4.0,85,0.00,,,0.00,0,WxPro DR1,2013-01-24 06:28:00,
2013-01-24 01:33:00,11.8,8.2,30.11,SSW,207,1.0,3.0,85,0.00,,,0.00,0,WxPro DR1,2013-01-24 06:33:00,
2013-01-24 01:38:00,11.8,8.2,30.11,SSW,209,0.0,3.0,85,0.00,,,0.00,0,WxPro DR1,2013-01-24 06:38:00,
2013-01-24 01:43:00,11.9,8.3,30.11,SSW,209,1.0,1.0,85,0.00,,,0.00,0,WxPro DR1,2013-01-24 06:43:00,
2013-01-24 01:48:00,11.9,8.3,30.11,SSW,207,0.0,2.0,85,0.00,,,0.00,0,WxPro DR1,2013-01-24 06:48:00,
2013-01-24 01:53:00,11.9,8.3,30.12,SSW,207,0.0,2.0,85,0.00,,,0.00,0,WxPro DR1,2013-01-24 06:53:00,
2013-01-24 01:58:00,11.9,8.3,30.12,SSW,209,0.0,3.0,85,0.00,,,0.00,0,WxPro DR1,2013-01-24 06:58:00,
2013-01-24 02:03:00,11.9,8.3,30.12,SSW,209,1.0,3.0,85,0.00,,,0.00,0,WxPro DR1,2013-01-24 07:03:00,
2013-01-24 02:08:00,11.9,8.3,30.12,SSW,209,1.0,2.0,85,0.00,,,0.00,0,WxPro DR1,2013-01-24 07:08:00,
2013-01-24 02:13:00,12.0,8.4,30.12,SSW,209,0.0,1.0,85,0.00,,,0.00,0,WxPro DR1,2013-01-24 07:13:00,
2013-01-24 02:18:00,12.0,8.4,30.12,SSW,209,0.0,1.0,85,0.00,,,0.00,0,WxPro DR1,2013-01-24 07:18:00,
2013-01-24 02:23:00,12.0,8.4,30.13,SSW,209,0.0,1.0,85,0.00,,,0.00,0,WxPro DR1,2013-01-24 07:23:00,
2013-01-24 02:28:00,12.0,8.4,30.12,SSW,209,0.0,2.0,85,0.00,,,0.00,0,WxPro DR1,2013-01-24 07:28:00,
2013-01-24 02:33:00,12.0,8.4,30.13,SSE,168,0.0,2.0,85,0.00,,,0.00,0,WxPro DR1,2013-01-24 07:33:00,
2013-01-24 02:38:00,12.1,8.5,30.13,SSE,162,2.0,2.0,85,0.00,,,0.00,0,WxPro DR1,2013-01-24 07:38:00,
2013-01-24 02:43:00,12.1,8.4,30.13,SSE,162,0.0,2.0,85,0.00,,,0.00,0,WxPro DR1,2013-01-24 07:43:00,
2013-01-24 02:48:00,12.0,8.4,30.13,SSE,161,1.0,2.0,85,0.00,,,0.00,0,WxPro DR1,2013-01-24 07:48:00,
2013-01-24 02:53:00,12.0,8.4,30.13,SSE,162,0.0,1.0,85,0.00,,,0.00,0,WxPro DR1,2013-01-24 07:53:00,
2013-01-24 02:58:00,12.0,8.4,30.13,SSE,162,0.0,2.0,85,0.00,,,0.00,0,WxPro DR1,2013-01-24 07:58:00,
2013-01-24 03:03:00,12.0,8.3,30.13,SSE,163,0.0,3.0,85,0.00,,,0.00,0,WxPro DR1,2013-01-24 08:03:00,
2013-01-24 03:08:00,11.9,8.2,30.13,SSE,163,1.0,3.0,85,0.00,,,0.00,0,WxPro DR1,2013-01-24 08:08:00,
2013-01-24 03:13:00,11.8,8.2,30.14,SSE,163,0.0,2.0,85,0.00,,,0.00,0,WxPro DR1,2013-01-24 08:13:00,
2013-01-24 03:18:00,11.8,8.1,30.14,SSE,163,0.0,2.0,85,0.00,,,0.00,0,WxPro DR1,2013-01-24 08:18:00,
2013-01-24 03:23:00,11.8,8.4,30.14,SSE,163,0.0,2.0,86,0.00,,,0.00,0,WxPro DR1,2013-01-24 08:23:00,
2013-01-24 03:28:00,11.8,8.2,30.14,SSE,163,1.0,1.0,85,0.00,,,0.00,0,WxPro DR1,2013-01-24 08:28:00,
2013-01-24 03:33:00,11.8,8.2,30.14,SSE,163,0.0,1.0,85,0.00,,,0.00,0,WxPro DR1,2013-01-24 08:33:00,
2013-01-24 03:38:00,11.8,8.4,30.14,SSE,163,0.0,1.0,86,0.00,,,0.00,0,WxPro DR1,2013-01-24 08:38:00,
2013-01-24 03:43:00,11.8,8.4,30.14,SSE,161,0.0,1.0,86,0.00,,,0.00,0,WxPro DR1,2013-01-24 08:43:00,
2013-01-24 03:48:00,11.7,8.4,30.15,SSE,163,0.0,1.0,86,0.00,,,0.00,0,WxPro DR1,2013-01-24 08:48:00,
2013-01-24 03:53:00,11.8,8.4,30.15,SSE,163,0.0,2.0,86,0.00,,,0.00,0,WxPro DR1,2013-01-24 08:53:00,
2013-01-24 03:58:00,11.8,8.4,30.16,SSE,163,0.0,2.0,86,0.00,,,0.00,0,WxPro DR1,2013-01-24 08:58:00,
2013-01-24 04:03:00,11.8,8.4,30.16,SSE,163,0.0,1.0,86,0.00,,,0.00,0,WxPro DR1,2013-01-24 09:03:00,
2013-01-24 04:08:00,11.8,8.4,30.16,SSE,162,0.0,1.0,86,0.00,,,0.00,0,WxPro DR1,2013-01-24 09:08:00,
2013-01-24 04:13:00,11.8,8.4,30.16,SSE,163,0.0,1.0,86,0.00,,,0.00,0,WxPro DR1,2013-01-24 09:13:00,
2013-01-24 04:18:00,11.7,8.3,30.16,SSE,162,0.0,1.0,86,0.00,,,0.00,0,WxPro DR1,2013-01-24 09:18:00,
2013-01-24 04:23:00,11.6,8.2,30.16,SSE,163,0.0,1.0,86,0.00,,,0.00,0,WxPro DR1,2013-01-24 09:23:00,
2013-01-24 04:28:00,11.4,8.1,30.17,SSE,163,0.0,0.0,86,0.00,,,0.00,0,WxPro DR1,2013-01-24 09:28:00,
2013-01-24 04:33:00,11.2,7.9,30.17,SSE,162,0.0,0.0,86,0.00,,,0.00,0,WxPro DR1,2013-01-24 09:33:00,
2013-01-24 04:38:00,11.0,7.7,30.18,SSE,163,0.0,0.0,86,0.00,,,0.00,0,WxPro DR1,2013-01-24 09:38:00,
2013-01-24 04:43:00,10.8,7.4,30.18,SSE,161,0.0,0.0,86,0.00,,,0.00,0,WxPro DR1,2013-01-24 09:43:00,
2013-01-24 04:48:00,10.5,7.1,30.18,SSE,161,0.0,0.0,86,0.00,,,0.00,0,WxPro DR1,2013-01-24 09:48:00,
2013-01-24 04:53:00,10.1,6.8,30.18,SSE,163,0.0,0.0,86,0.00,,,0.00,0,WxPro DR1,2013-01-24 09:53:00,
2013-01-24 04:58:00,9.8,6.5,30.18,SSE,163,0.0,0.0,86,0.00,,,0.00,0,WxPro DR1,2013-01-24 09:58:00,
2013-01-24 05:03:00,9.6,6.2,30.19,SSE,163,0.0,0.0,86,0.00,,,0.00,0,WxPro DR1,2013-01-24 10:03:00,
2013-01-24 05:08:00,9.3,5.9,30.19,SSE,163,0.0,0.0,86,0.00,,,0.00,0,WxPro DR1,2013-01-24 10:08:00,
2013-01-24 05:13:00,9.0,5.6,30.19,SSE,162,0.0,0.0,86,0.00,,,0.00,0,WxPro DR1,2013-01-24 10:13:00,
2013-01-24 05:18:00,8.7,5.6,30.19,SSE,163,0.0,0.0,87,0.00,,,0.00,0,WxPro DR1,2013-01-24 10:18:00,
2013-01-24 05:23:00,8.4,5.4,30.19,SSE,162,0.0,0.0,87,0.00,,,0.00,0,WxPro DR1,2013-01-24 10:23:00,
2013-01-24 05:28:00,8.4,5.3,30.20,SSE,163,0.0,0.0,87,0.00,,,0.00,0,WxPro DR1,2013-01-24 10:28:00,
2013-01-24 05:33:00,8.2,5.1,30.20,SSE,163,0.0,0.0,87,0.00,,,0.00,0,WxPro DR1,2013-01-24 10:33:00,
2013-01-24 05:38:00,8.0,5.0,30.20,SSE,163,0.0,0.0,87,0.00,,,0.00,0,WxPro DR1,2013-01-24 10:38:00,
2013-01-24 05:43:00,7.9,4.9,30.20,SSE,163,0.0,0.0,87,0.00,,,0.00,0,WxPro DR1,2013-01-24 10:43:00,
2013-01-24 05:48:00,7.8,5.0,30.21,SSE,163,0.0,0.0,88,0.00,,,0.00,0,WxPro DR1,2013-01-24 10:48:00,
2013-01-24 05:53:00,7.7,4.9,30.21,SSE,163,0.0,0.0,88,0.00,,,0.00,0,WxPro DR1,2013-01-24 10:53:00,
2013-01-24 05:58:00,7.6,4.8,30.22,SSE,162,0.0,0.0,88,0.00,,,0.00,0,WxPro DR1,2013-01-24 10:58:00,
2013-01-24 06:03:00,7.4,4.6,30.22,SSE,163,0.0,0.0,88,0.00,,,0.00,0,WxPro DR1,2013-01-24 11:03:00,
2013-01-24 06:08:00,7.3,4.5,30.22,SSE,163,0.0,0.0,88,0.00,,,0.00,0,WxPro DR1,2013-01-24 11:08:00,
2013-01-24 06:13:00,7.3,4.5,30.23,SSE,163,0.0,0.0,88,0.00,,,0.00,0,WxPro DR1,2013-01-24 11:13:00,
2013-01-24 06:18:00,7.3,4.5,30.22,SSE,163,0.0,0.0,88,0.00,,,0.00,0,WxPro DR1,2013-01-24 11:18:00,
2013-01-24 06:23:00,7.2,4.4,30.23,SSE,163,0.0,0.0,88,0.00,,,0.00,0,WxPro DR1,2013-01-24 11:23:00,
2013-01-24 06:28:00,7.2,4.4,30.24,SSE,163,0.0,0.0,88,0.00,,,0.00,0,WxPro DR1,2013-01-24 11:28:00,
2013-01-24 06:33:00,7.3,4.5,30.24,SSE,163,0.0,0.0,88,0.00,,,0.00,0,WxPro DR1,2013-01-24 11:33:00,
2013-01-24 06:38:00,7.5,5.0,30.24,SSE,163,0.0,0.0,89,0.00,,,0.00,0,WxPro DR1,2013-01-24 11:38:00,
2013-01-24 06:43:00,7.8,5.2,30.25,SSE,163,0.0,0.0,89,0.00,,,0.00,0,WxPro DR1,2013-01-24 11:43:00,
2013-01-24 06:48:00,8.1,5.5,30.25,SSE,163,0.0,0.0,89,0.00,,,0.00,0,WxPro DR1,2013-01-24 11:48:00,
2013-01-24 06:53:00,8.4,5.8,30.25,SSE,161,0.0,0.0,89,0.00,,,0.00,0,WxPro DR1,2013-01-24 11:53:00,
2013-01-24 06:58:00,8.7,6.1,30.25,SSE,163,0.0,0.0,89,0.00,,,0.00,0,WxPro DR1,2013-01-24 11:58:00,
2013-01-24 07:03:00,9.0,6.4,30.26,SSE,163,0.0,0.0,89,0.00,,,0.00,0,WxPro DR1,2013-01-24 12:03:00,
2013-01-24 07:08:00,9.3,7.0,30.26,SSE,163,0.0,0.0,90,0.00,,,0.00,0,WxPro DR1,2013-01-24 12:08:00,
2013-01-24 07:13:00,9.6,7.3,30.27,SSE,162,0.0,0.0,90,0.00,,,0.00,0,WxPro DR1,2013-01-24 12:13:00,
2013-01-24 07:18:00,9.9,7.5,30.27,SSE,163,0.0,0.0,90,0.00,,,0.00,0,WxPro DR1,2013-01-24 12:18:00,
2013-01-24 07:23:00,10.0,7.7,30.27,SSE,163,0.0,0.0,90,0.00,,,0.00,0,WxPro DR1,2013-01-24 12:23:00,
2013-01-24 07:28:00,10.2,7.9,30.27,SSE,162,0.0,1.0,90,0.00,,,0.00,0,WxPro DR1,2013-01-24 12:28:00,
2013-01-24 07:33:00,10.3,7.8,30.27,SSE,163,0.0,1.0,89,0.00,,,0.00,0,WxPro DR1,2013-01-24 12:33:00,
2013-01-24 07:38:00,10.2,7.6,30.27,SSE,163,0.0,1.0,89,0.00,,,0.00,0,WxPro DR1,2013-01-24 12:38:00,
2013-01-24 07:43:00,10.1,7.5,30.28,SSE,163,0.0,0.0,89,0.00,,,0.00,9,WxPro DR1,2013-01-24 12:43:00,
2013-01-24 07:48:00,10.1,7.6,30.28,SSE,162,0.0,0.0,89,0.00,,,0.00,16,WxPro DR1,2013-01-24 12:48:00,
2013-01-24 07:53:00,10.2,7.7,30.28,SSE,163,0.0,0.0,89,0.00,,,0.00,16,WxPro DR1,2013-01-24 12:53:00,
2013-01-24 07:58:00,10.4,7.8,30.29,SSE,163,0.0,0.0,89,0.00,,,0.00,9,WxPro DR1,2013-01-24 12:58:00,
2013-01-24 08:03:00,10.6,8.0,30.29,SSE,163,0.0,1.0,89,0.00,,,0.00,7,WxPro DR1,2013-01-24 13:03:00,
2013-01-24 08:08:00,10.7,8.1,30.30,SSE,163,0.0,1.0,89,0.00,,,0.00,7,WxPro DR1,2013-01-24 13:08:00,
2013-01-24 08:13:00,10.8,8.2,30.30,SSE,163,0.0,0.0,89,0.00,,,0.00,5,WxPro DR1,2013-01-24 13:13:00,
2013-01-24 08:18:00,10.8,8.2,30.30,SSE,163,0.0,0.0,89,0.00,,,0.00,7,WxPro DR1,2013-01-24 13:18:00,
2013-01-24 08:23:00,10.9,8.3,30.31,SSE,162,0.0,0.0,89,0.00,,,0.00,7,WxPro DR1,2013-01-24 13:23:00,
2013-01-24 08:28:00,11.1,8.5,30.31,SSE,163,0.0,0.0,89,0.00,,,0.00,11,WxPro DR1,2013-01-24 13:28:00,
2013-01-24 08:33:00,11.2,8.6,30.31,SSE,163,0.0,0.0,89,0.00,,,0.00,16,WxPro DR1,2013-01-24 13:33:00,
2013-01-24 08:38:00,11.4,8.8,30.32,SSE,163,0.0,1.0,89,0.00,,,0.00,18,WxPro DR1,2013-01-24 13:38:00,
2013-01-24 08:43:00,11.6,9.0,30.32,SSE,163,0.0,1.0,89,0.00,,,0.00,19,WxPro DR1,2013-01-24 13:43:00,
2013-01-24 08:48:00,11.7,9.1,30.32,SSE,163,0.0,1.0,89,0.00,,,0.00,25,WxPro DR1,2013-01-24 13:48:00,
2013-01-24 08:53:00,11.8,9.2,30.33,SSE,159,0.0,1.0,89,0.00,,,0.00,32,WxPro DR1,2013-01-24 13:53:00,
2013-01-24 08:58:00,11.9,9.3,30.33,SSE,157,0.0,1.0,89,0.00,,,0.00,33,WxPro DR1,2013-01-24 13:58:00,
2013-01-24 09:03:00,12.1,9.5,30.34,East,101,0.0,2.0,89,0.00,,,0.00,33,WxPro DR1,2013-01-24 14:03:00,
2013-01-24 09:08:00,12.1,9.5,30.34,East,99,0.0,2.0,89,0.00,,,0.00,39,WxPro DR1,2013-01-24 14:08:00,
2013-01-24 09:13:00,12.2,9.6,30.34,East,98,0.0,2.0,89,0.00,,,0.00,42,WxPro DR1,2013-01-24 14:13:00,
2013-01-24 09:18:00,12.3,9.6,30.34,East,98,0.0,2.0,89,0.00,,,0.00,47,WxPro DR1,2013-01-24 14:18:00,
2013-01-24 09:23:00,12.5,9.9,30.35,East,94,0.0,2.0,89,0.00,,,0.00,46,WxPro DR1,2013-01-24 14:23:00,
2013-01-24 09:28:00,12.6,9.7,30.35,NE,42,3.0,4.0,88,0.00,,,0.00,60,WxPro DR1,2013-01-24 14:28:00,
2013-01-24 09:33:00,12.3,9.4,30.35,NE,42,0.0,4.0,88,0.00,,,0.00,46,WxPro DR1,2013-01-24 14:33:00,
2013-01-24 09:38:00,12.4,9.5,30.36,NE,44,0.0,3.0,88,0.00,,,0.00,47,WxPro DR1,2013-01-24 14:38:00,
2013-01-24 09:43:00,12.3,9.2,30.36,NE,49,2.0,3.0,87,0.00,,,0.00,44,WxPro DR1,2013-01-24 14:43:00,
2013-01-24 09:48:00,12.2,9.1,30.36,NE,51,0.0,3.0,87,0.00,,,0.00,69,WxPro DR1,2013-01-24 14:48:00,
2013-01-24 09:53:00,12.4,9.2,30.37,NE,47,1.0,3.0,87,0.00,,,0.00,58,WxPro DR1,2013-01-24 14:53:00,
2013-01-24 09:58:00,12.6,9.5,30.37,NE,52,1.0,3.0,87,0.00,,,0.00,67,WxPro DR1,2013-01-24 14:58:00,
2013-01-24 10:03:00,12.7,9.4,30.38,North,5,2.0,3.0,86,0.00,,,0.00,56,WxPro DR1,2013-01-24 15:03:00,
2013-01-24 10:08:00,12.6,9.3,30.38,North,1,2.0,3.0,86,0.00,,,0.00,53,WxPro DR1,2013-01-24 15:08:00,
2013-01-24 10:13:00,12.6,9.2,30.38,North,1,1.0,3.0,86,0.00,,,0.00,53,WxPro DR1,2013-01-24 15:13:00,
2013-01-24 10:18:00,12.6,9.3,30.39,North,9,1.0,5.0,86,0.00,,,0.00,49,WxPro DR1,2013-01-24 15:18:00,
2013-01-24 10:23:00,12.7,9.6,30.39,NNE,16,2.0,5.0,87,0.00,,,0.00,56,WxPro DR1,2013-01-24 15:23:00,
2013-01-24 10:28:00,12.8,9.6,30.39,North,6,1.0,5.0,87,0.00,,,0.00,54,WxPro DR1,2013-01-24 15:28:00,
2013-01-24 10:33:00,12.7,9.6,30.39,North,11,1.0,5.0,87,0.00,,,0.00,62,WxPro DR1,2013-01-24 15:33:00,
2013-01-24 10:38:00,12.8,10.0,30.40,NNW,330,3.0,11.0,88,0.00,,,0.00,63,WxPro DR1,2013-01-24 15:38:00,
2013-01-24 10:43:00,12.8,9.6,30.40,NNW,347,3.0,11.0,87,0.00,,,0.00,70,WxPro DR1,2013-01-24 15:43:00,
2013-01-24 10:48:00,12.7,9.7,30.41,North,351,1.0,10.0,87,0.00,,,0.00,53,WxPro DR1,2013-01-24 15:48:00,
2013-01-24 10:53:00,12.7,9.6,30.41,NW,323,2.0,11.0,87,0.00,,,0.00,54,WxPro DR1,2013-01-24 15:53:00,
2013-01-24 10:58:00,12.7,9.8,30.41,NW,311,5.0,11.0,88,0.00,,,0.00,56,WxPro DR1,2013-01-24 15:58:00,
2013-01-24 11:03:00,12.6,9.5,30.41,NNW,327,4.0,10.0,87,0.00,,,0.00,62,WxPro DR1,2013-01-24 16:03:00,
2013-01-24 11:08:00,12.3,9.2,30.42,WNW,284,5.0,10.0,87,0.00,,,0.00,67,WxPro DR1,2013-01-24 16:08:00,
2013-01-24 11:13:00,12.3,9.2,30.42,WNW,292,2.0,8.0,87,0.00,,,0.00,79,WxPro DR1,2013-01-24 16:13:00,
2013-01-24 11:18:00,12.5,9.4,30.42,NNW,337,3.0,9.0,87,0.00,,,0.00,95,WxPro DR1,2013-01-24 16:18:00,
2013-01-24 11:23:00,13.0,9.8,30.42,NNW,341,0.0,9.0,87,0.00,,,0.00,67,WxPro DR1,2013-01-24 16:23:00,
2013-01-24 11:28:00,13.5,10.1,30.42,NNW,344,1.0,5.0,86,0.00,,,0.00,88,WxPro DR1,2013-01-24 16:28:00,
2013-01-24 11:33:00,13.7,9.5,30.42,NNE,30,5.0,10.0,83,0.00,,,0.00,72,WxPro DR1,2013-01-24 16:33:00,
2013-01-24 11:38:00,13.4,9.2,30.42,North,356,3.0,10.0,83,0.00,,,0.00,113,WxPro DR1,2013-01-24 16:38:00,
2013-01-24 11:43:00,13.4,9.5,30.42,NW,317,3.0,8.0,84,0.00,,,0.00,95,WxPro DR1,2013-01-24 16:43:00,
2013-01-24 11:48:00,13.7,9.6,30.42,WSW,248,1.0,8.0,83,0.00,,,0.00,109,WxPro DR1,2013-01-24 16:48:00,
2013-01-24 11:53:00,14.1,9.9,30.42,NW,306,5.0,10.0,83,0.00,,,0.00,107,WxPro DR1,2013-01-24 16:53:00,
2013-01-24 11:58:00,14.2,9.3,30.42,West,265,2.0,12.0,81,0.00,,,0.00,53,WxPro DR1,2013-01-24 16:58:00,
2013-01-24 12:03:00,13.5,8.5,30.42,NW,314,6.0,12.0,80,0.00,,,0.00,58,WxPro DR1,2013-01-24 17:03:00,
2013-01-24 12:08:00,13.0,8.0,30.43,NW,309,3.0,12.0,80,0.00,,,0.00,62,WxPro DR1,2013-01-24 17:08:00,
2013-01-24 12:13:00,13.1,8.1,30.42,West,279,5.0,10.0,80,0.00,,,0.00,120,WxPro DR1,2013-01-24 17:13:00,
2013-01-24 12:18:00,13.6,8.6,30.42,North,5,3.0,7.0,80,0.00,,,0.00,84,WxPro DR1,2013-01-24 17:18:00,
2013-01-24 12:23:00,13.7,8.6,30.43,WNW,294,3.0,9.0,80,0.00,,,0.00,46,WxPro DR1,2013-01-24 17:23:00,
2013-01-24 12:28:00,13.4,8.4,30.43,NW,307,7.0,10.0,80,0.00,,,0.00,172,WxPro DR1,2013-01-24 17:28:00,
2013-01-24 12:33:00,13.6,8.8,30.43,West,271,6.0,10.0,81,0.00,,,0.00,397,WxPro DR1,2013-01-24 17:33:00,
2013-01-24 12:38:00,14.0,9.0,30.43,West,261,6.0,14.0,80,0.00,,,0.00,153,WxPro DR1,2013-01-24 17:38:00,
2013-01-24 12:43:00,13.8,9.0,30.43,NW,325,11.0,15.0,81,0.00,,,0.00,144,WxPro DR1,2013-01-24 17:43:00,
2013-01-24 12:48:00,13.4,8.4,30.43,NNW,340,2.0,15.0,80,0.00,,,0.00,288,WxPro DR1,2013-01-24 17:48:00,
2013-01-24 12:53:00,13.6,8.5,30.43,NW,325,7.0,12.0,80,0.00,,,0.00,158,WxPro DR1,2013-01-24 17:53:00,
2013-01-24 12:58:00,13.4,8.9,30.43,NW,309,3.0,11.0,82,0.00,,,0.00,176,WxPro DR1,2013-01-24 17:58:00,
2013-01-24 13:03:00,12.9,8.7,30.43,WNW,300,6.0,11.0,83,0.00,,,0.00,197,WxPro DR1,2013-01-24 18:03:00,
2013-01-24 13:08:00,12.9,7.8,30.43,West,267,4.0,12.0,80,0.00,,,0.00,541,WxPro DR1,2013-01-24 18:08:00,
2013-01-24 13:13:00,13.6,7.5,30.43,NW,305,5.0,12.0,76,0.00,,,0.00,257,WxPro DR1,2013-01-24 18:13:00,
2013-01-24 13:18:00,13.6,8.1,30.44,NNW,334,5.0,12.0,78,0.00,,,0.00,192,WxPro DR1,2013-01-24 18:18:00,
2013-01-24 13:23:00,13.4,7.8,30.44,NW,321,17.0,17.0,78,0.00,,,0.00,171,WxPro DR1,2013-01-24 18:23:00,
2013-01-24 13:28:00,12.8,7.3,30.44,West,271,4.0,17.0,78,0.00,,,0.00,155,WxPro DR1,2013-01-24 18:28:00,
2013-01-24 13:33:00,12.7,7.4,30.44,North,351,5.0,14.0,79,0.00,,,0.00,294,WxPro DR1,2013-01-24 18:33:00,
2013-01-24 13:38:00,12.6,7.3,30.44,NW,325,3.0,16.0,79,0.00,,,0.00,123,WxPro DR1,2013-01-24 18:38:00,
2013-01-24 13:43:00,12.6,7.3,30.44,NW,315,2.0,16.0,79,0.00,,,0.00,499,WxPro DR1,2013-01-24 18:43:00,
2013-01-24 13:48:00,13.2,7.0,30.44,WNW,283,12.0,15.0,76,0.00,,,0.00,584,WxPro DR1,2013-01-24 18:48:00,
2013-01-24 13:53:00,13.8,6.8,30.44,NW,306,3.0,15.0,73,0.00,,,0.00,520,WxPro DR1,2013-01-24 18:53:00,
2013-01-24 13:58:00,14.4,7.4,30.44,WNW,300,3.0,12.0,73,0.00,,,0.00,580,WxPro DR1,2013-01-24 18:58:00,
2013-01-24 14:03:00,14.9,7.3,30.44,NW,321,10.0,14.0,71,0.00,,,0.00,550,WxPro DR1,2013-01-24 19:03:00,
2013-01-24 14:08:00,14.5,6.7,30.44,WNW,300,8.0,15.0,70,0.00,,,0.00,353,WxPro DR1,2013-01-24 19:08:00,
2013-01-24 14:13:00,13.9,7.2,30.45,West,280,4.0,19.0,74,0.00,,,0.00,123,WxPro DR1,2013-01-24 19:13:00,
2013-01-24 14:18:00,13.3,8.1,30.45,WNW,289,1.0,19.0,79,0.00,,,0.00,102,WxPro DR1,2013-01-24 19:18:00,
2013-01-24 14:23:00,12.6,7.9,30.45,NW,314,4.0,13.0,81,0.00,,,0.00,195,WxPro DR1,2013-01-24 19:23:00,
2013-01-24 14:28:00,12.5,7.8,30.45,WSW,257,7.0,13.0,81,0.00,,,0.00,468,WxPro DR1,2013-01-24 19:28:00,
2013-01-24 14:33:00,13.1,7.6,30.45,WNW,282,4.0,13.0,78,0.00,,,0.00,459,WxPro DR1,2013-01-24 19:33:00,
2013-01-24 14:38:00,13.5,7.4,30.45,NW,313,5.0,17.0,76,0.00,,,0.00,466,WxPro DR1,2013-01-24 19:38:00,
2013-01-24 14:43:00,13.6,7.1,30.45,NW,305,5.0,17.0,75,0.00,,,0.00,169,WxPro DR1,2013-01-24 19:43:00,
2013-01-24 14:48:00,13.5,6.8,30.46,WNW,298,9.0,12.0,74,0.00,,,0.00,190,WxPro DR1,2013-01-24 19:48:00,
2013-01-24 14:53:00,13.2,6.2,30.46,West,273,3.0,12.0,73,0.00,,,0.00,178,WxPro DR1,2013-01-24 19:53:00,
2013-01-24 14:58:00,13.2,5.9,30.46,West,276,9.0,14.0,72,0.00,,,0.00,265,WxPro DR1,2013-01-24 19:58:00,
2013-01-24 15:03:00,13.2,6.2,30.46,WNW,296,6.0,17.0,73,0.00,,,0.00,107,WxPro DR1,2013-01-24 20:03:00,
2013-01-24 15:08:00,13.0,6.0,30.47,West,280,9.0,17.0,73,0.00,,,0.00,132,WxPro DR1,2013-01-24 20:08:00,
2013-01-24 15:13:00,12.7,6.0,30.47,WSW,255,3.0,14.0,74,0.00,,,0.00,97,WxPro DR1,2013-01-24 20:13:00,
2013-01-24 15:18:00,12.4,5.7,30.47,NW,305,9.0,18.0,74,0.00,,,0.00,63,WxPro DR1,2013-01-24 20:18:00,
2013-01-24 15:23:00,12.2,6.1,30.47,West,259,6.0,18.0,76,0.00,,,0.00,49,WxPro DR1,2013-01-24 20:23:00,
2013-01-24 15:28:00,12.0,5.9,30.47,WNW,296,7.0,12.0,76,0.00,,,0.00,46,WxPro DR1,2013-01-24 20:28:00,
2013-01-24 15:33:00,11.9,6.1,30.47,WNW,298,4.0,14.0,77,0.00,,,0.00,65,WxPro DR1,2013-01-24 20:33:00,
2013-01-24 15:38:00,11.8,6.5,30.47,WNW,302,3.0,14.0,79,0.00,,,0.00,98,WxPro DR1,2013-01-24 20:38:00,
2013-01-24 15:43:00,11.9,6.6,30.47,WNW,293,7.0,12.0,79,0.00,,,0.00,144,WxPro DR1,2013-01-24 20:43:00,
2013-01-24 15:48:00,12.1,7.4,30.47,NNW,336,11.0,12.0,81,0.00,,,0.00,302,WxPro DR1,2013-01-24 20:48:00,
2013-01-24 15:53:00,12.5,8.1,30.47,West,279,9.0,12.0,82,0.00,,,0.00,77,WxPro DR1,2013-01-24 20:53:00,
2013-01-24 15:58:00,12.5,7.1,30.48,WNW,288,3.0,12.0,79,0.00,,,0.00,42,WxPro DR1,2013-01-24 20:58:00,
2013-01-24 16:03:00,12.3,5.6,30.48,West,270,6.0,16.0,74,0.00,,,0.00,91,WxPro DR1,2013-01-24 21:03:00,
2013-01-24 16:08:00,12.2,4.9,30.48,WNW,287,5.0,16.0,72,0.00,,,0.00,109,WxPro DR1,2013-01-24 21:08:00,
2013-01-24 16:13:00,12.2,4.7,30.48,WNW,286,3.0,12.0,71,0.00,,,0.00,93,WxPro DR1,2013-01-24 21:13:00,
2013-01-24 16:18:00,12.4,4.6,30.48,WSW,241,12.0,17.0,70,0.00,,,0.00,60,WxPro DR1,2013-01-24 21:18:00,
2013-01-24 16:23:00,12.3,4.4,30.49,WSW,251,6.0,17.0,70,0.00,,,0.00,26,WxPro DR1,2013-01-24 21:23:00,
2013-01-24 16:28:00,11.8,4.2,30.49,WNW,294,2.0,15.0,71,0.00,,,0.00,21,WxPro DR1,2013-01-24 21:28:00,
2013-01-24 16:33:00,11.5,4.2,30.50,WNW,302,7.0,13.0,72,0.00,,,0.00,23,WxPro DR1,2013-01-24 21:33:00,
2013-01-24 16:38:00,11.3,4.4,30.50,West,265,12.0,13.0,73,0.00,,,0.00,26,WxPro DR1,2013-01-24 21:38:00,
2013-01-24 16:43:00,11.4,4.4,30.49,WSW,243,6.0,17.0,73,0.00,,,0.00,33,WxPro DR1,2013-01-24 21:43:00,
2013-01-24 16:48:00,11.4,4.5,30.50,WNW,292,0.0,17.0,73,0.00,,,0.00,19,WxPro DR1,2013-01-24 21:48:00,
2013-01-24 16:53:00,11.3,4.7,30.50,West,270,9.0,15.0,74,0.00,,,0.00,16,WxPro DR1,2013-01-24 21:53:00,
2013-01-24 16:58:00,11.2,4.5,30.50,West,280,2.0,10.0,74,0.00,,,0.00,14,WxPro DR1,2013-01-24 21:58:00,
2013-01-24 17:03:00,11.0,4.4,30.50,West,259,13.0,15.0,74,0.00,,,0.00,11,WxPro DR1,2013-01-24 22:03:00,
2013-01-24 17:08:00,11.0,4.1,30.50,West,269,10.0,16.0,73,0.00,,,0.00,7,WxPro DR1,2013-01-24 22:08:00,
2013-01-24 17:13:00,10.9,4.0,30.51,WNW,289,3.0,16.0,73,0.00,,,0.00,0,WxPro DR1,2013-01-24 22:13:00,
2013-01-24 17:18:00,10.8,3.9,30.51,WSW,257,13.0,14.0,73,0.00,,,0.00,0,WxPro DR1,2013-01-24 22:18:00,
2013-01-24 17:23:00,10.8,3.9,30.51,WNW,295,1.0,20.0,73,0.00,,,0.00,0,WxPro DR1,2013-01-24 22:23:00,
2013-01-24 17:28:00,10.7,4.0,30.51,West,272,3.0,20.0,74,0.00,,,0.00,0,WxPro DR1,2013-01-24 22:28:00,
2013-01-24 17:33:00,10.6,4.0,30.51,NW,313,7.0,11.0,74,0.00,,,0.00,0,WxPro DR1,2013-01-24 22:33:00,
2013-01-24 17:38:00,10.6,4.0,30.52,NW,307,4.0,11.0,74,0.00,,,0.00,0,WxPro DR1,2013-01-24 22:38:00,
2013-01-24 17:43:00,10.5,4.1,30.52,West,267,7.0,11.0,75,0.00,,,0.00,0,WxPro DR1,2013-01-24 22:43:00,
2013-01-24 17:48:00,10.4,4.0,30.52,West,279,3.0,11.0,75,0.00,,,0.00,0,WxPro DR1,2013-01-24 22:48:00,
2013-01-24 17:53:00,10.3,4.0,30.52,WNW,283,5.0,13.0,75,0.00,,,0.00,0,WxPro DR1,2013-01-24 22:53:00,
2013-01-24 17:58:00,10.2,3.8,30.52,West,277,4.0,13.0,75,0.00,,,0.00,0,WxPro DR1,2013-01-24 22:58:00,
2013-01-24 18:03:00,9.9,3.9,30.52,West,275,0.0,12.0,76,0.00,,,0.00,0,WxPro DR1,2013-01-24 23:03:00,
2013-01-24 18:08:00,9.9,3.9,30.52,West,281,9.0,12.0,76,0.00,,,0.00,0,WxPro DR1,2013-01-24 23:08:00,
2013-01-24 18:13:00,9.9,3.9,30.52,WSW,241,2.0,12.0,76,0.00,,,0.00,0,WxPro DR1,2013-01-24 23:13:00,
2013-01-24 18:18:00,9.8,3.8,30.52,West,265,1.0,12.0,76,0.00,,,0.00,0,WxPro DR1,2013-01-24 23:18:00,
2013-01-24 18:23:00,9.7,4.0,30.53,WSW,246,3.0,11.0,77,0.00,,,0.00,0,WxPro DR1,2013-01-24 23:23:00,
2013-01-24 18:28:00,9.7,4.0,30.53,WSW,248,2.0,7.0,77,0.00,,,0.00,0,WxPro DR1,2013-01-24 23:28:00,
2013-01-24 18:33:00,9.6,3.9,30.52,West,260,2.0,10.0,77,0.00,,,0.00,0,WxPro DR1,2013-01-24 23:33:00,
2013-01-24 18:38:00,9.6,3.8,30.52,West,274,3.0,10.0,77,0.00,,,0.00,0,WxPro DR1,2013-01-24 23:38:00,
2013-01-24 18:43:00,9.5,3.8,30.53,West,264,2.0,8.0,77,0.00,,,0.00,0,WxPro DR1,2013-01-24 23:43:00,
2013-01-24 18:48:00,9.5,3.7,30.53,WSW,256,1.0,8.0,77,0.00,,,0.00,0,WxPro DR1,2013-01-24 23:48:00,
2013-01-24 18:53:00,9.4,3.7,30.53,West,265,1.0,7.0,77,0.00,,,0.00,0,WxPro DR1,2013-01-24 23:53:00,
2013-01-24 18:58:00,9.4,3.7,30.54,SW,229,2.0,11.0,77,0.00,,,0.00,0,WxPro DR1,2013-01-24 23:58:00,
2013-01-24 19:03:00,9.5,3.8,30.53,West,273,1.0,11.0,77,0.00,,,0.00,0,WxPro DR1,2013-01-25 00:03:00,
2013-01-24 19:08:00,9.7,4.3,30.53,West,268,3.0,11.0,78,0.00,,,0.00,0,WxPro DR1,2013-01-25 00:08:00,
2013-01-24 19:13:00,9.9,4.4,30.53,West,259,1.0,9.0,78,0.00,,,0.00,0,WxPro DR1,2013-01-25 00:13:00,
2013-01-24 19:18:00,9.9,4.2,30.53,WNW,296,1.0,13.0,77,0.00,,,0.00,0,WxPro DR1,2013-01-25 00:18:00,
2013-01-24 19:23:00,9.9,4.2,30.53,SW,221,3.0,13.0,77,0.00,,,0.00,0,WxPro DR1,2013-01-25 00:23:00,
2013-01-24 19:28:00,9.9,4.2,30.54,WSW,244,2.0,7.0,77,0.00,,,0.00,0,WxPro DR1,2013-01-25 00:28:00,
2013-01-24 19:33:00,9.9,4.1,30.54,West,273,2.0,6.0,77,0.00,,,0.00,0,WxPro DR1,2013-01-25 00:33:00,
2013-01-24 19:38:00,9.8,4.0,30.53,West,267,3.0,6.0,77,0.00,,,0.00,0,WxPro DR1,2013-01-25 00:38:00,
2013-01-24 19:43:00,9.7,4.3,30.53,WSW,255,7.0,7.0,78,0.00,,,0.00,0,WxPro DR1,2013-01-25 00:43:00,
2013-01-24 19:48:00,9.8,4.2,30.53,WSW,255,0.0,8.0,77,0.00,,,0.00,0,WxPro DR1,2013-01-25 00:48:00,
2013-01-24 19:53:00,9.7,3.9,30.53,WSW,253,0.0,8.0,77,0.00,,,0.00,0,WxPro DR1,2013-01-25 00:53:00,
2013-01-24 19:58:00,9.5,4.0,30.53,WSW,258,0.0,5.0,78,0.00,,,0.00,0,WxPro DR1,2013-01-25 00:58:00,
2013-01-24 20:03:00,9.4,4.0,30.53,WSW,246,1.0,5.0,78,0.00,,,0.00,0,WxPro DR1,2013-01-25 01:03:00,
2013-01-24 20:08:00,9.4,4.0,30.53,WSW,250,0.0,6.0,78,0.00,,,0.00,0,WxPro DR1,2013-01-25 01:08:00,
2013-01-24 20:13:00,9.4,4.0,30.53,WSW,258,0.0,6.0,78,0.00,,,0.00,0,WxPro DR1,2013-01-25 01:13:00,
2013-01-24 20:18:00,9.5,4.1,30.52,WSW,242,0.0,6.0,78,0.00,,,0.00,0,WxPro DR1,2013-01-25 01:18:00,
2013-01-24 20:23:00,9.7,4.2,30.52,West,261,0.0,6.0,78,0.00,,,0.00,0,WxPro DR1,2013-01-25 01:23:00,
2013-01-24 20:28:00,9.8,4.5,30.52,West,277,2.0,4.0,78,0.00,,,0.00,0,WxPro DR1,2013-01-25 01:28:00,
2013-01-24 20:33:00,9.9,4.4,30.51,West,273,1.0,4.0,78,0.00,,,0.00,0,WxPro DR1,2013-01-25 01:33:00,
2013-01-24 20:38:00,10.0,4.6,30.52,West,272,0.0,5.0,78,0.00,,,0.00,0,WxPro DR1,2013-01-25 01:38:00,
2013-01-24 20:43:00,10.0,4.5,30.52,West,272,1.0,5.0,78,0.00,,,0.00,0,WxPro DR1,2013-01-25 01:43:00,
2013-01-24 20:48:00,9.9,4.5,30.52,West,270,0.0,6.0,78,0.00,,,0.00,0,WxPro DR1,2013-01-25 01:48:00,
2013-01-24 20:53:00,9.9,4.4,30.52,West,267,0.0,6.0,78,0.00,,,0.00,0,WxPro DR1,2013-01-25 01:53:00,
2013-01-24 20:58:00,10.0,4.6,30.52,West,265,0.0,4.0,78,0.00,,,0.00,0,WxPro DR1,2013-01-25 01:58:00,
2013-01-24 21:03:00,10.1,4.9,30.52,SW,230,3.0,4.0,79,0.00,,,0.00,0,WxPro DR1,2013-01-25 02:03:00,
2013-01-24 21:08:00,10.3,5.0,30.52,West,264,0.0,7.0,79,0.00,,,0.00,0,WxPro DR1,2013-01-25 02:08:00,
2013-01-24 21:13:00,10.5,5.0,30.51,West,261,0.0,7.0,78,0.00,,,0.00,0,WxPro DR1,2013-01-25 02:13:00,
2013-01-24 21:18:00,10.6,5.2,30.52,WSW,255,4.0,6.0,78,0.00,,,0.00,0,WxPro DR1,2013-01-25 02:18:00,
2013-01-24 21:23:00,10.7,5.2,30.51,WSW,250,1.0,9.0,78,0.00,,,0.00,0,WxPro DR1,2013-01-25 02:23:00,
2013-01-24 21:28:00,10.5,4.8,30.51,SW,233,1.0,9.0,77,0.00,,,0.00,0,WxPro DR1,2013-01-25 02:28:00,
2013-01-24 21:33:00,10.4,4.7,30.51,SW,226,1.0,5.0,77,0.00,,,0.00,0,WxPro DR1,2013-01-25 02:33:00,
2013-01-24 21:38:00,10.3,4.5,30.51,SW,225,2.0,7.0,77,0.00,,,0.00,0,WxPro DR1,2013-01-25 02:38:00,
2013-01-24 21:43:00,10.2,4.7,30.52,SW,226,0.0,7.0,78,0.00,,,0.00,0,WxPro DR1,2013-01-25 02:43:00,
2013-01-24 21:48:00,10.1,4.6,30.51,WSW,242,3.0,7.0,78,0.00,,,0.00,0,WxPro DR1,2013-01-25 02:48:00,
2013-01-24 21:53:00,10.1,4.6,30.51,SSW,192,1.0,7.0,78,0.00,,,0.00,0,WxPro DR1,2013-01-25 02:53:00,
2013-01-24 21:58:00,10.0,4.6,30.51,SW,228,0.0,7.0,78,0.00,,,0.00,0,WxPro DR1,2013-01-25 02:58:00,
2013-01-24 22:03:00,9.9,4.4,30.51,WSW,242,2.0,7.0,78,0.00,,,0.00,0,WxPro DR1,2013-01-25 03:03:00,
2013-01-24 22:08:00,9.8,4.4,30.51,SW,219,1.0,6.0,78,0.00,,,0.00,0,WxPro DR1,2013-01-25 03:08:00,
2013-01-24 22:13:00,9.8,4.3,30.51,SW,222,0.0,5.0,78,0.00,,,0.00,0,WxPro DR1,2013-01-25 03:13:00,
2013-01-24 22:18:00,9.7,4.4,30.51,SW,215,3.0,6.0,79,0.00,,,0.00,0,WxPro DR1,2013-01-25 03:18:00,
2013-01-24 22:23:00,9.8,4.6,30.51,WSW,240,2.0,6.0,79,0.00,,,0.00,0,WxPro DR1,2013-01-25 03:23:00,
2013-01-24 22:28:00,9.9,4.7,30.51,SW,219,6.0,6.0,79,0.00,,,0.00,0,WxPro DR1,2013-01-25 03:28:00,
2013-01-24 22:33:00,9.9,4.4,30.52,SW,217,1.0,9.0,78,0.00,,,0.00,0,WxPro DR1,2013-01-25 03:33:00,
2013-01-24 22:38:00,9.9,4.4,30.52,WSW,249,0.0,9.0,78,0.00,,,0.00,0,WxPro DR1,2013-01-25 03:38:00,
2013-01-24 22:43:00,9.9,4.4,30.52,SW,227,2.0,6.0,78,0.00,,,0.00,0,WxPro DR1,2013-01-25 03:43:00,
2013-01-24 22:48:00,9.9,4.2,30.52,WSW,255,10.0,11.0,77,0.00,,,0.00,0,WxPro DR1,2013-01-25 03:48:00,
2013-01-24 22:53:00,9.9,4.1,30.51,WSW,253,3.0,11.0,77,0.00,,,0.00,0,WxPro DR1,2013-01-25 03:53:00,
2013-01-24 22:58:00,9.7,4.0,30.51,SSW,213,1.0,6.0,77,0.00,,,0.00,0,WxPro DR1,2013-01-25 03:58:00,
2013-01-24 23:03:00,9.6,3.9,30.51,WSW,257,0.0,6.0,77,0.00,,,0.00,0,WxPro DR1,2013-01-25 04:03:00,
2013-01-24 23:08:00,9.5,3.8,30.51,SW,223,0.0,6.0,77,0.00,,,0.00,0,WxPro DR1,2013-01-25 04:08:00,
2013-01-24 23:13:00,9.5,3.8,30.51,WSW,253,3.0,6.0,77,0.00,,,0.00,0,WxPro DR1,2013-01-25 04:13:00,
2013-01-24 23:18:00,9.5,3.8,30.51,West,259,0.0,6.0,77,0.00,,,0.00,0,WxPro DR1,2013-01-25 04:18:00,
2013-01-24 23:23:00,9.4,3.7,30.51,SW,230,2.0,6.0,77,0.00,,,0.00,0,WxPro DR1,2013-01-25 04:23:00,
2013-01-24 23:28:00,9.2,3.5,30.51,South,188,0.0,6.0,77,0.00,,,0.00,0,WxPro DR1,2013-01-25 04:28:00,
2013-01-24 23:33:00,9.1,3.7,30.52,SW,225,0.0,6.0,78,0.00,,,0.00,0,WxPro DR1,2013-01-25 04:33:00,
2013-01-24 23:38:00,9.0,3.5,30.52,SSW,210,0.0,5.0,78,0.00,,,0.00,0,WxPro DR1,2013-01-25 04:38:00,
2013-01-24 23:43:00,8.9,3.5,30.52,SSW,207,3.0,5.0,78,0.00,,,0.00,0,WxPro DR1,2013-01-25 04:43:00,
2013-01-24 23:48:00,8.9,3.4,30.52,SW,221,0.0,6.0,78,0.00,,,0.00,0,WxPro DR1,2013-01-25 04:48:00,
2013-01-24 23:53:00,8.8,3.3,30.52,SW,214,0.0,6.0,78,0.00,,,0.00,0,WxPro DR1,2013-01-25 04:53:00,
2013-01-24 23:58:00,8.7,3.2,30.52,SSW,198,3.0,3.0,78,0.00,,,0.00,0,WxPro DR1,2013-01-25 04:58:00,